Regional Weather Roundup
Issued by NWS

Home | Current Version | Previous Version | Text Only | Print | Product List | Glossary On
Versions: 1 2 3 4 5 6 7 8 9 10 11 12 13 14 15 16 17 18 19 20 21 22 23 24 25 26 27 28 29 30 31 32 33 34 35 36 37 38 39 40 41 42 43 44 45 46 47 48 49 50
000
ASUS43 KDTX 022310
RWRMI
MICHIGAN HOURLY REGIONAL WEATHER ROUNDUP
NATIONAL WEATHER SERVICE DETROIT/PONTIAC MI
700 PM EDT THU JUL 02 2015

NOTE: "FAIR" INDICATES FEW OR NO CLOUDS BELOW 12,000 FEET WITH NO
SIGNIFICANT WEATHER AND/OR OBSTRUCTION TO VISIBILITY.

MIZ047>049-052>055-059>063-066>070-074>076-081>083-030000-
SOUTHEAST LOWER MICHIGAN

CITY           SKY/WX    TMP DP  RH WIND       PRES   REMARKS
ADRIAN         PTSUNNY   74  54  49 NE6       29.97S
ALMA           SUNNY     70  46  42 E7        30.01S
ANN ARBOR      MOSUNNY   74  52  46 NE7       29.97S
BAD AXE        SUNNY     65  47  51 NE6       30.02S
CARO           SUNNY     69  51  52 CALM      30.00R
DETROIT CITY   SUNNY     70  48  45 NE9       29.98S
DETROIT        MOSUNNY   72  50  45 NE8       29.97S
FLINT          CLOUDY    72  51  47 N8        29.99S
GROSSE ILE     SUNNY     72  54  53 E7        29.97R
HILLSDALE      MOSUNNY   71  53  52 NE7       29.98S
HOWELL         MOSUNNY   69  51  51 CALM      29.99S

CITY           SKY/WX    TMP DP  RH WIND       PRES   REMARKS
JACKSON        SUNNY     72  54  53 NE3       29.98F
LAMBERTVILLE   SUNNY     72  54  53 E6        29.98S
LANSING        MOSUNNY   71  52  50 NE7       30.00S
LAPEER         FAIR      68  48  47 NE5       30.00S
MASON          MOSUNNY   68  52  56 CALM      29.99S
MONROE         MOSUNNY   69  57  64 SE6       29.96S
MT. CLEMENS    MOSUNNY   69  48  47 NE9       29.97S
PONTIAC        MOSUNNY   68  51  54 NE8       29.98S
PORT HOPE        N/A     62  53  72 N6        30.02S
PORT HURON     SUNNY     64  48  55 N8        30.00F
TRI CITIES     SUNNY     70  46  42 NE9       30.01F
MIDLAND        FAIR      69  47  45 E6        30.01S
TROY           SUNNY     71  48  43 NE10      30.00S
SAGINAW HB     SUNNY     70  43  37 N12       30.00F
$$
MIZ043>046-050>051-056>058-064>065-071>073-077>080-030000-
SOUTHWEST LOWER MICHIGAN

CITY           SKY/WX    TMP DP  RH WIND       PRES   REMARKS
BATTLE CREEK   SUNNY     74  53  48 NE8       29.98F
BENTON HARBOR  MOSUNNY   65  56  72 N9        29.97F
BIG RAPIDS     SUNNY     72  41  32 SE5       29.99F
COLDWATER      SUNNY     70  52  51 NE8       29.96F
FREMONT        FAIR      73  45  36 E6        29.98F
HOLLAND        SUNNY     71  54  54 NW6       29.99S
GRAND RAPIDS   MOSUNNY   72  52  49 E9        29.99F
IONIA          FAIR      70  53  54 NE8       29.99S
KALAMAZOO      MOSUNNY   73  51  46 E5        29.98S
LUDINGTON      SUNNY     71  50  48 N9        30.00S
MARSHALL       MOSUNNY   70  53  54 CALM      29.97F
MOUNT PLEASANT SUNNY     71  50  47 E8        30.00S
MUSKEGON       MOSUNNY   71  52  50 NW10      29.98F
SOUTH HAVEN    SUNNY     64  54  68 N10G18    29.98S
$$
MIZ016>042-030000-
NORTHERN LOWER MICHIGAN

CITY           SKY/WX    TMP DP  RH WIND       PRES   REMARKS
ALPENA         SUNNY     71  35  26 SE6       30.01F
BEAVER ISLAND  MOSUNNY   65  45  48 SW7       30.02F
BELLAIRE       SUNNY     70  47  44 CALM      30.00S
CADILLAC       SUNNY     71  45  38 CALM      30.00S
CHARLEVOIX     MOSUNNY   66  47  49 W6        30.05S
FRANKFORT      SUNNY     69  41  35 N6        30.01S
GAYLORD        SUNNY     70  41  34 NE5       30.02S
GRAYLING       SUNNY     72  42  34 N7        30.01S
HARBOR SPRINGS SUNNY     63  53  70 SW6       30.01F
HOUGHTON LAKE  SUNNY     72  41  32 NE6       30.01S
MANISTEE       SUNNY    N/A N/A N/A NW9       29.99S
OSCODA         SUNNY     67  37  33 E6        30.01F
PELLSTON       SUNNY     71  48  43 W8        30.01S
ROGERS CITY    SUNNY     70  43  37 N3        30.02S
TRAVERSE CITY  MOSUNNY   70  48  45 N9        29.99F
$$
MIZ007>008-015-030000-
EASTERN UPPER MICHIGAN

CITY           SKY/WX    TMP DP  RH WIND       PRES   REMARKS
KINROSS        SUNNY     70  45  40 NW6       29.99F
MACKINAC ISLAN SUNNY     68  47  48 W5        30.00F
NEWBERRY       CLOUDY    68  52  57 S5        29.99S
S. S. MARIE    SUNNY     70  47  43 NW8       29.99F
MUNISING         N/A     66  49  54 CALM      29.96F
$$
MIZ004>006-011>014-085-030000-
CENTRAL UPPER MICHIGAN

CITY           SKY/WX    TMP DP  RH WIND       PRES   REMARKS
MANISTIQUE     MOSUNNY   62  47  58 SW9       30.00F
ESCANABA       SUNNY     68  48  49 S9        30.00F
MENOMINEE      SUNNY     70  46  43 S6        30.01S
SAWYER-GWINN   PTSUNNY   73  50  43 SW13      29.98F
$$
MIZ001>003-009>011-084-030000-
WESTERN UPPER MICHIGAN

CITY           SKY/WX    TMP DP  RH WIND       PRES   REMARKS
IRON MOUNTAIN  SUNNY     75  50  41 SW8       29.98F
HOUGHTON       MOSUNNY   72  55  55 W9        29.95F
COPPER HARBOR    N/A     63  52  67 E3        29.95F
IRONWOOD       SUNNY     73  57  56 W10       29.94F
$$

ABBREVIATIONS USED IN REMARKS
   TC - TEMPERATURE IN CELSIUS
  WCI - WIND CHILL INDEX
   HX - HEAT INDEX
  VSB - VISIBILITY



USA.gov is the U.S. government's official web portal to all federal, state and local government web resources and services.